Temperature
28 25 24 25 26 27 27 27 26 27 28 27 26 25 25 25 24 24 23 22 22 22 22 22 22 21 21 21 21 20 20 20 20 20 19 19 19 19 19 19 19 19 19 19
25 25 27 28 28 28 27 26 26 27 28 27 25 25 25 25 25 24 23 23 22 22 22 21 21 21 21 21 21 20 20 20 20 20 20 19 19 19 19 19 19 19 19 19
26 27 29 29 28 28 27 26 27 27 27 27 26 25 25 25 25 25 24 23 23 22 22 21 21 21 21 21 21 20 20 20 20 20 19 19 19 19 19 19 19 19 19 19
26 28 29 28 28 28 27 28 28 28 26 24 25 23 23 24 24 24 24 23 23 23 22 22 22 21 21 21 21 21 20 20 20 20 20 19 19 19 19 19 19 19 19 19
26 28 28 28 29 29 28 29 28 27 25 24 24 23 23 23 23 23 24 24 23 23 23 22 22 22 21 21 21 21 20 20 20 20 20 19 19 19 19 19 19 19 18 18
27 28 28 29 29 30 29 28 26 23 22 23 24 23 22 22 23 24 24 24 23 23 23 22 22 22 21 21 21 20 20 20 20 20 19 19 19 19 19 19 19 18 18 18
26 27 28 29 28 28 27 24 23 23 22 22 23 23 22 24 24 24 24 24 23 23 23 22 22 21 21 21 21 20 20 20 20 20 19 19 19 19 19 19 19 19 19 18
24 25 27 29 28 27 27 24 23 23 23 22 23 23 23 25 25 25 24 24 23 23 23 23 22 22 21 21 21 21 20 20 20 20 19 19 19 19 19 19 19 19 19 18
24 25 28 29 29 28 27 25 23 22 22 22 22 23 24 24 24 23 24 23 23 23 23 22 22 21 21 21 21 21 21 20 20 20 19 19 19 19 19 19 18 18 18 18
24 25 26 28 29 28 27 25 22 22 22 22 23 23 22 23 22 22 22 22 22 22 22 22 22 21 21 21 21 20 20 20 20 19 19 19 19 19 19 19 19 18 18 18
24 24 25 26 27 27 27 26 23 20 21 21 22 22 24 23 22 22 22 22 22 22 22 22 21 21 21 21 20 20 20 20 20 20 19 19 19 19 19 18 18 18 18 18
23 21 22 24 26 27 27 25 22 22 22 20 20 22 24 23 22 22 22 22 22 22 22 22 21 21 21 20 20 20 20 20 20 20 19 19 19 19 18 18 18 18 18 18
23 21 21 23 23 25 26 26 23 21 20 20 21 22 23 22 22 23 22 22 22 21 21 21 21 21 21 20 20 20 20 20 20 19 19 19 18 18 18 18 18 18 18 18
23 20 21 22 22 24 25 26 25 22 21 21 22 22 22 21 21 21 22 22 21 21 21 21 21 20 20 20 20 20 20 20 19 19 19 18 18 18 18 18 17 17 17 17
22 21 22 22 24 25 25 26 26 24 22 22 22 21 21 21 21 21 22 21 21 21 20 20 20 20 20 20 20 20 19 19 19 19 18 18 18 18 17 17 17 17 17 17
20 21 22 23 24 25 25 25 26 25 24 23 23 22 21 22 22 21 21 21 20 20 20 20 20 20 19 20 19 19 19 19 19 18 18 18 18 17 17 17 17 17 16 16
19 20 20 20 22 23 23 24 24 24 23 23 22 21 21 20 20 20 20 20 20 20 20 20 20 19 19 19 19 19 18 18 18 18 18 18 17 17 17 17 16 16 16 16
19 18 17 19 21 22 22 23 24 23 22 22 21 21 21 20 21 21 21 21 20 20 20 20 20 20 19 19 19 18 18 18 18 17 17 17 17 17 16 16 16 16 16 16
18 18 17 17 19 21 22 23 23 22 20 21 21 20 20 20 20 20 21 21 21 21 20 20 20 19 19 19 18 18 18 17 17 17 17 17 16 16 16 16 16 16 16 16
18 17 17 17 20 20 21 22 23 21 19 20 20 19 19 20 18 18 20 20 20 20 20 20 19 19 19 18 18 18 17 17 17 17 16 16 16 16 16 16 16 16 15 15
18 17 17 17 18 19 20 21 22 20 19 20 20 20 19 19 19 20 20 20 20 19 19 19 19 19 18 18 18 17 17 17 17 16 16 16 16 16 16 16 15 15 15 15
17 16 16 16 18 18 19 20 19 18 19 20 20 20 20 20 20 19 19 19 19 19 19 19 18 18 18 17 17 17 17 17 16 16 16 16 16 15 15 15 15 15 15 15
16 16 15 16 16 17 19 19 20 20 19 19 19 19 19 19 19 18 18 18 18 18 18 18 18 17 17 17 17 16 16 16 16 16 15 15 15 15 15 15 15 15 14 14
16 16 15 15 16 17 18 19 19 19 19 19 19 19 19 19 18 18 18 18 18 17 17 17 17 17 16 16 16 16 16 15 15 15 15 15 15 15 15 14 14 14 14 14
16 16 15 15 16 17 18 18 18 19 19 19 19 19 19 18 18 18 18 17 17 17 16 16 16 16 16 15 15 15 15 15 15 15 15 15 14 14 14 14 14 14 14 14
15 15 14 14 16 15 17 18 18 18 18 18 18 18 18 18 17 17 17 17 17 16 16 16 16 15 15 15 15 15 15 15 15 14 14 14 14 14 14 14 14 14 14 13
Wind_Speed
2 2 5 8 8 7 4 3 4 5 3 3 5 6 10 10 11 12 12 12 12 11 9 10 10 10 9 7 6 5 5 4 3 2 2 2 2 2 3 4 6 7 7 7
2 6 11 8 6 4 3 3 4 4 3 3 5 5 8 11 13 14 15 14 13 11 10 10 10 9 9 8 7 6 5 5 4 3 2 2 2 2 3 3 4 6 7 7
7 8 6 5 6 5 5 5 5 3 2 3 4 1 4 6 6 9 11 12 13 15 14 13 12 11 10 9 8 7 6 5 4 3 2 2 1 0 1 2 2 4 6 6
6 7 5 5 7 5 6 7 4 4 2 2 3 2 6 5 5 8 10 10 12 13 13 12 12 12 11 10 9 7 6 5 4 4 4 4 3 3 3 3 2 3 5 6
7 5 5 7 8 5 7 5 3 2 1 2 2 3 6 3 5 8 10 12 13 13 14 14 14 13 12 11 9 7 6 5 4 4 4 4 2 2 1 1 1 2 3 4
9 6 5 7 7 5 2 3 6 6 5 2 4 3 5 5 9 9 9 10 11 12 12 11 11 10 10 10 8 8 7 6 5 5 4 4 4 3 2 1 1 1 1 2
8 8 5 4 4 4 3 5 4 5 4 4 3 2 7 7 7 8 9 9 10 10 11 10 11 10 10 11 10 9 8 7 5 5 4 4 4 4 3 2 2 2 1 2
3 8 5 3 6 5 4 9 7 5 5 4 3 3 6 4 4 7 8 8 8 9 9 10 12 12 12 12 11 10 9 7 6 5 4 3 3 3 2 2 2 2 3 3
5 7 7 5 5 7 4 4 9 7 2 0 3 3 4 3 4 6 6 8 9 10 10 9 9 9 10 11 11 11 10 7 6 5 4 3 3 3 2 2 2 2 2 2
6 5 8 6 1 1 7 6 6 5 4 3 4 3 4 4 5 6 7 8 8 8 8 8 8 8 8 9 9 9 8 8 7 7 6 5 4 3 3 2 2 2 2 2
5 4 7 4 1 3 0 2 4 5 6 6 4 6 6 9 10 10 8 8 9 9 9 8 7 7 7 7 8 8 8 7 7 6 5 5 4 3 3 3 3 3 3 3
3 5 4 7 7 4 5 6 7 5 4 5 5 7 5 8 9 9 8 7 8 8 7 6 6 6 7 7 7 7 8 8 7 6 5 5 4 3 4 4 4 4 3 3
4 5 1 7 8 6 1 2 4 6 4 4 5 6 2 5 6 7 8 7 7 7 7 6 5 6 6 6 6 6 7 7 7 6 5 4 3 3 3 4 3 3 3 3
4 4 6 7 8 4 4 4 1 5 4 4 6 6 2 3 5 5 6 7 7 7 7 6 5 5 6 6 5 5 4 5 5 5 5 4 4 4 4 3 3 3 3 3
5 3 2 5 6 3 4 5 4 3 7 7 7 8 9 9 9 8 7 8 8 7 6 6 6 4 4 4 4 4 3 3 5 5 5 5 4 4 3 3 3 3 3 4
3 3 2 4 5 3 4 5 3 2 2 4 5 5 6 6 7 7 8 9 9 8 8 7 6 5 5 5 4 3 3 3 4 4 4 4 4 3 3 3 3 2 3 3
1 3 2 4 6 5 5 4 1 0 0 5 5 6 5 6 8 9 9 9 9 8 7 7 6 7 6 5 5 4 3 3 4 4 3 3 2 3 3 3 2 2 2 2
5 3 3 1 2 4 7 4 3 4 2 2 4 5 9 9 7 6 7 9 8 7 7 7 7 6 5 4 3 2 3 3 3 3 2 2 2 2 2 2 2 3 2 2
7 7 4 3 3 5 5 4 1 4 3 2 5 6 6 6 7 3 3 6 8 7 6 5 6 6 5 5 4 3 3 3 2 2 2 3 3 3 3 3 3 3 2 2
3 5 5 4 4 6 5 6 2 6 1 3 5 7 6 6 4 3 3 4 5 6 5 4 5 5 5 5 5 5 3 3 3 3 3 3 3 3 4 4 3 2 2 3
3 2 3 5 5 6 5 6 3 3 5 3 2 5 5 3 5 5 5 5 6 6 6 6 5 5 5 5 5 4 3 3 4 3 3 3 3 3 3 3 3 2 2 1
3 2 3 3 3 6 4 2 3 5 3 2 2 3 3 3 4 5 6 6 6 5 5 5 6 4 4 4 5 3 3 4 2 2 2 2 2 3 3 3 2 2 2 2
2 5 5 5 6 5 1 3 3 3 2 1 2 3 5 6 6 6 5 6 5 5 4 4 6 5 3 3 4 4 3 2 1 1 1 1 1 1 2 3 3 2 2 2
4 1 2 1 1 1 1 2 2 2 2 2 3 5 6 6 7 7 6 6 5 4 4 4 5 5 3 2 3 3 3 2 2 2 2 1 1 1 1 2 2 2 2 3
4 1 1 1 2 1 2 1 1 2 3 2 3 5 6 7 7 7 7 6 4 3 3 3 4 4 3 2 2 2 2 2 2 2 2 2 2 2 2 2 2 3 4 5
3 3 3 5 6 4 4 3 2 3 3 4 4 3 4 5 5 6 6 5 5 4 3 3 3 3 2 1 2 2 2 2 3 2 2 2 2 2 2 2 1 2 3 4
Wind_Direction
238 126 226 231 214 212 225 248 277 275 254 127 132 150 168 169 165 165 166 166 163 166 161 155 155 156 152 151 154 163 159 164 152 151 159 162 185 196 193 203 200 198 198 196
356 250 239 235 242 232 225 247 269 283 262 137 152 172 187 182 182 179 173 173 170 162 156 161 160 158 160 163 165 169 170 169 171 178 182 185 184 194 196 200 198 201 198 197
220 247 245 239 256 260 256 228 228 220 321 45 104 39 212 206 189 181 176 175 172 168 166 169 168 169 167 170 172 172 175 172 176 170 144 135 104 57 167 195 202 211 203 202
252 254 259 255 255 226 252 242 212 178 118 277 128 196 255 213 198 189 182 178 179 174 169 170 171 174 173 176 176 172 173 172 174 165 150 151 168 187 204 196 206 216 207 207
262 247 250 257 247 222 233 231 184 170 118 3 6 134 271 197 200 206 193 186 184 178 174 172 176 177 174 175 175 172 170 170 173 170 165 160 166 180 173 154 180 222 221 216
259 262 229 232 249 233 225 39 29 47 68 1 261 171 261 216 208 203 193 186 182 177 173 173 174 168 169 172 170 168 168 174 176 173 172 172 171 163 149 165 189 230 240 225
299 291 267 236 263 300 86 85 26 1 9 258 276 154 245 234 199 179 171 173 169 168 170 170 169 170 172 173 173 172 171 178 179 176 181 183 184 170 168 184 192 203 216 215
265 289 272 237 198 210 193 141 159 196 220 268 319 228 258 249 173 157 149 152 152 157 168 176 179 179 178 176 173 171 173 176 176 178 186 182 180 178 184 187 191 199 214 220
207 259 276 255 216 170 178 183 172 151 172 208 276 281 331 34 120 141 143 142 152 157 164 167 174 178 176 174 173 173 169 171 176 180 177 182 185 184 189 197 202 219 232 228
180 254 284 287 18 225 168 161 97 118 158 235 275 254 222 207 181 157 150 149 152 148 153 163 168 173 176 174 172 169 167 172 177 184 188 191 198 196 192 186 209 228 241 245
164 193 293 335 193 226 176 119 119 130 153 163 224 261 219 194 180 166 164 156 153 152 156 162 168 173 170 164 166 171 174 172 180 187 188 189 196 199 195 204 222 229 235 235
175 152 255 270 266 213 172 175 149 156 227 171 174 258 254 180 166 154 154 152 150 150 150 152 156 154 156 161 165 173 180 182 188 188 186 195 196 195 200 219 232 232 232 231
118 111 39 332 335 353 40 169 157 148 139 160 174 249 296 142 145 148 145 143 137 133 131 136 140 144 152 155 162 169 179 185 186 183 182 194 197 198 209 226 234 231 231 238
105 113 161 203 231 255 295 291 214 132 154 195 209 210 234 169 152 152 142 139 134 133 140 143 146 153 155 152 152 162 173 175 173 173 176 189 206 205 209 221 227 227 227 233
87 123 195 235 246 260 274 284 280 213 188 186 209 189 202 188 171 162 150 143 139 141 145 147 148 153 148 141 136 142 153 167 173 171 174 189 208 210 202 207 218 220 225 235
62 116 32 321 311 331 309 306 303 253 216 181 168 206 209 169 141 139 148 149 149 152 154 153 149 145 145 142 138 144 150 163 157 166 172 185 195 193 195 205 207 215 227 230
75 111 85 282 309 2 304 277 237 302 223 164 184 211 162 145 150 160 159 151 155 156 157 160 162 158 163 165 153 157 171 161 155 160 165 170 181 194 207 202 190 208 227 228
156 131 140 209 12 245 246 258 164 114 23 115 131 147 152 153 158 158 154 151 150 153 156 164 160 153 154 151 142 164 154 133 143 154 169 183 184 200 210 197 205 217 214 223
168 154 142 143 204 264 290 320 64 116 359 8 118 122 129 124 91 76 145 151 158 159 160 163 161 155 149 146 147 140 123 124 144 178 206 208 198 201 210 211 217 218 213 230
94 129 144 160 188 229 256 299 302 107 325 302 124 128 130 117 129 215 190 141 137 133 149 160 150 139 145 156 147 133 143 151 184 209 225 218 204 205 216 216 218 219 211 230
38 57 159 186 211 245 265 297 27 130 219 261 122 134 136 149 190 185 155 132 135 138 148 144 132 139 156 154 138 140 166 209 214 205 217 217 213 215 213 206 209 205 208 227
170 159 186 164 195 246 282 41 133 206 213 156 124 127 121 130 125 132 134 130 125 122 124 128 129 137 140 140 139 155 212 234 220 199 212 229 227 227 210 194 199 189 183 193
174 190 183 183 212 243 281 158 188 164 146 174 150 151 144 138 145 146 137 132 130 126 122 123 128 125 122 139 148 172 226 232 194 177 221 246 234 227 188 177 185 181 170 180
306 335 118 112 234 253 44 79 85 105 129 152 150 147 140 143 149 147 141 133 129 125 126 120 120 126 138 156 160 185 208 192 164 191 224 240 215 228 223 207 197 188 193 190
265 322 87 152 225 25 350 6 119 82 83 91 133 142 144 140 150 148 144 140 139 132 125 131 137 141 162 177 187 209 202 172 173 197 213 221 225 216 215 228 224 213 223 208
251 200 179 225 234 204 240 239 161 118 119 119 105 96 116 129 143 145 146 148 145 136 126 124 130 142 167 182 223 242 225 176 172 195 215 217 226 217 202 203 257 277 244 228
Height
1494 1501 1507 1502 1498 1499 1502 1506 1509 1502 1494 1497 1503 1505 1504 1505 1506 1507 1509 1510 1512 1514 1517 1518 1520 1521 1523 1525 1526 1527 1528 1529 1530 1531 1531 1532 1533 1534 1534 1535 1536 1537 1537 1538
1500 1503 1493 1490 1491 1494 1499 1506 1507 1501 1493 1497 1503 1504 1502 1502 1502 1503 1505 1507 1510 1513 1516 1517 1519 1521 1522 1523 1524 1526 1527 1528 1529 1530 1531 1531 1532 1532 1533 1534 1535 1535 1536 1537
1502 1495 1487 1490 1493 1496 1499 1503 1503 1504 1497 1496 1503 1511 1506 1502 1502 1504 1505 1506 1508 1510 1512 1515 1517 1519 1521 1522 1523 1525 1526 1527 1528 1529 1530 1530 1531 1531 1531 1532 1533 1534 1535 1535
1495 1488 1488 1490 1492 1492 1502 1489 1491 1496 1506 1515 1509 1530 1513 1504 1503 1503 1504 1506 1507 1509 1511 1513 1515 1517 1519 1521 1523 1524 1525 1526 1527 1528 1528 1528 1528 1528 1529 1530 1531 1532 1533 1533
1493 1486 1488 1490 1486 1485 1490 1483 1487 1492 1503 1513 1511 1524 1519 1505 1506 1502 1500 1502 1504 1506 1508 1510 1512 1514 1517 1519 1521 1523 1524 1525 1526 1527 1527 1527 1527 1528 1528 1529 1530 1531 1531 1531
1486 1480 1481 1481 1478 1478 1480 1486 1492 1501 1513 1529 1517 1523 1523 1509 1501 1497 1497 1499 1502 1504 1506 1509 1511 1513 1515 1517 1519 1520 1522 1523 1524 1525 1526 1526 1527 1527 1527 1527 1528 1529 1529 1529
1491 1482 1477 1476 1481 1480 1484 1505 1527 1531 1539 1535 1514 1518 1516 1494 1490 1491 1493 1496 1498 1502 1504 1506 1509 1511 1513 1515 1516 1518 1520 1521 1523 1524 1524 1525 1526 1526 1526 1526 1527 1527 1527 1527
1505 1501 1479 1474 1479 1485 1487 1501 1528 1540 1542 1534 1517 1519 1504 1487 1487 1488 1490 1494 1497 1500 1502 1504 1506 1507 1509 1511 1513 1515 1517 1519 1521 1522 1522 1523 1524 1525 1525 1525 1526 1525 1525 1525
1502 1499 1474 1470 1469 1475 1486 1495 1498 1518 1524 1533 1525 1511 1497 1487 1488 1489 1491 1493 1495 1497 1499 1502 1504 1506 1507 1509 1511 1513 1515 1517 1518 1520 1520 1521 1522 1522 1523 1523 1524 1524 1524 1523
1488 1495 1479 1470 1468 1470 1475 1483 1503 1517 1533 1539 1527 1519 1512 1497 1493 1489 1489 1491 1493 1495 1497 1500 1502 1504 1506 1507 1509 1511 1513 1515 1516 1517 1518 1519 1520 1521 1521 1521 1522 1522 1522 1522
1481 1494 1488 1478 1478 1480 1479 1485 1497 1512 1518 1533 1538 1523 1489 1488 1486 1487 1488 1489 1491 1493 1495 1498 1500 1502 1504 1506 1508 1510 1512 1513 1515 1515 1516 1517 1517 1518 1519 1519 1519 1519 1519 1519
1479 1491 1499 1486 1472 1468 1473 1481 1493 1511 1514 1519 1526 1516 1479 1480 1481 1484 1486 1488 1490 1492 1495 1497 1499 1501 1503 1504 1506 1508 1510 1511 1512 1513 1514 1515 1515 1516 1516 1516 1517 1517 1517 1517
1477 1492 1507 1501 1491 1477 1476 1477 1483 1494 1506 1517 1523 1510 1480 1480 1481 1483 1486 1488 1490 1492 1494 1496 1498 1500 1502 1504 1505 1506 1508 1509 1511 1512 1512 1513 1514 1514 1514 1514 1514 1514 1514 1514
1471 1489 1501 1507 1500 1486 1482 1477 1477 1490 1506 1509 1505 1498 1487 1484 1483 1484 1485 1487 1489 1491 1494 1496 1497 1499 1500 1502 1503 1505 1506 1508 1509 1510 1510 1511 1511 1512 1512 1512 1512 1512 1511 1511
1472 1487 1486 1485 1479 1477 1477 1475 1474 1480 1486 1496 1493 1491 1485 1481 1480 1482 1484 1487 1489 1491 1493 1495 1496 1498 1499 1501 1502 1504 1505 1506 1507 1507 1508 1508 1509 1509 1510 1510 1509 1509 1508 1508
1475 1484 1485 1484 1476 1475 1477 1472 1471 1473 1475 1479 1482 1485 1476 1477 1479 1482 1485 1486 1488 1490 1492 1494 1496 1497 1498 1500 1502 1503 1503 1504 1505 1505 1505 1506 1507 1507 1507 1507 1507 1507 1506 1506
1481 1485 1493 1496 1483 1480 1487 1475 1473 1474 1473 1475 1482 1480 1475 1478 1480 1481 1483 1484 1487 1488 1490 1492 1494 1495 1497 1498 1499 1501 1502 1502 1501 1502 1503 1503 1504 1504 1504 1504 1504 1504 1504 1503
1480 1487 1496 1498 1492 1500 1486 1468 1467 1471 1472 1470 1471 1472 1473 1474 1477 1479 1480 1482 1484 1487 1489 1491 1492 1493 1495 1497 1498 1499 1499 1499 1500 1500 1500 1501 1501 1501 1502 1502 1502 1501 1501 1500
1470 1482 1495 1502 1502 1493 1478 1469 1468 1472 1478 1471 1471 1472 1474 1475 1477 1481 1482 1482 1483 1485 1487 1489 1491 1492 1493 1495 1496 1496 1495 1497 1498 1498 1498 1498 1499 1499 1499 1499 1499 1498 1498 1497
1469 1475 1489 1497 1499 1499 1483 1468 1464 1469 1483 1473 1470 1472 1474 1474 1482 1483 1481 1481 1483 1484 1486 1488 1489 1490 1492 1493 1494 1494 1495 1495 1495 1495 1496 1496 1496 1496 1496 1496 1496 1496 1496 1495
1481 1484 1489 1493 1494 1487 1473 1466 1465 1483 1484 1473 1471 1470 1472 1473 1476 1477 1478 1480 1481 1483 1484 1486 1487 1489 1490 1491 1492 1492 1493 1493 1493 1493 1494 1494 1494 1493 1493 1494 1493 1493 1493 1492
1484 1489 1490 1492 1494 1490 1469 1467 1473 1476 1471 1471 1471 1471 1471 1472 1473 1475 1476 1477 1479 1481 1482 1484 1485 1487 1488 1489 1490 1490 1490 1491 1491 1491 1491 1491 1490 1490 1491 1490 1490 1490 1490 1489
1480 1480 1481 1483 1484 1473 1468 1468 1468 1469 1470 1470 1470 1471 1472 1471 1472 1474 1475 1476 1478 1479 1481 1482 1483 1484 1486 1487 1488 1487 1488 1488 1488 1488 1488 1488 1487 1487 1487 1487 1486 1486 1486 1486
1476 1472 1475 1477 1474 1471 1469 1468 1468 1468 1469 1469 1469 1470 1471 1471 1472 1473 1474 1476 1478 1479 1480 1481 1482 1483 1484 1485 1486 1486 1486 1486 1486 1486 1485 1485 1485 1484 1484 1484 1483 1483 1482 1482
1475 1473 1475 1476 1472 1471 1469 1468 1468 1468 1468 1468 1468 1469 1470 1470 1472 1472 1474 1475 1477 1478 1479 1480 1481 1481 1482 1483 1484 1484 1484 1484 1483 1483 1482 1482 1482 1481 1481 1480 1480 1479 1479 1479
1472 1473 1474 1474 1470 1469 1468 1467 1467 1467 1467 1468 1468 1469 1469 1470 1471 1472 1473 1474 1476 1477 1478 1479 1479 1480 1481 1481 1481 1482 1482 1481 1481 1480 1480 1479 1479 1478 1478 1477 1477 1477 1477 1476